EHI
0 0 0 0 0 0 0 0 0 0 0 0 0 0 0 0 0 0 0 0 0 0 1 3 3 3 3 3 3 3 2 1 0 0 0 0 1 3 3 3 3 2 2 3 3 3 2 2 2
0 0 0 0 0 0 0 0 0 0 0 0 0 0 0 0 0 0 0 0 0 0 1 2 3 3 3 3 3 3 2 1 0 0 0 1 2 3 3 3 2 1 1 1 1 1 1 2 2
0 0 0 0 0 0 0 0 0 0 0 0 0 0 0 0 0 0 0 1 1 1 1 1 2 3 3 3 3 3 2 1 0 0 0 1 2 3 2 1 1 0 0 0 0 0 0 1 1
0 0 0 0 0 0 0 0 0 0 0 0 0 0 0 0 0 0 1 2 2 2 1 1 2 4 4 4 4 3 2 1 0 0 0 1 2 1 1 0 0 0 0 0 0 0 0 0 0
0 0 0 0 0 0 0 0 0 0 0 0 0 0 0 0 0 0 1 2 3 3 3 3 3 3 4 4 4 3 1 1 0 0 1 2 1 0 0 0 0 0 0 0 0 0 0 0 0
0 0 0 0 0 0 0 0 0 0 0 0 0 0 0 0 0 0 1 1 2 2 3 4 4 3 3 4 4 3 2 1 0 0 1 2 1 0 0 0 0 0 0 0 0 0 0 0 0
0 0 0 0 0 0 0 0 0 0 0 0 0 0 0 0 1 1 1 0 1 1 1 3 3 3 2 2 2 2 2 1 0 0 1 1 1 0 0 0 0 0 0 0 0 0 0 0 0
0 0 0 0 0 0 0 0 0 0 0 0 0 0 0 1 2 2 0 0 0 0 0 1 1 1 1 1 1 1 1 0 0 0 0 0 0 0 0 0 0 0 0 0 0 0 0 0 0
0 0 0 0 0 0 0 0 0 0 0 0 0 0 1 2 3 2 0 0 0 0 0 0 0 0 0 0 0 0 0 0 0 0 0 0 0 0 0 0 0 0 0 0 0 0 0 0 0
0 0 0 0 0 0 0 0 0 0 0 0 0 0 1 3 3 1 0 0 0 0 0 0 0 0 0 0 0 0 0 0 0 0 0 0 0 0 0 0 0 0 0 0 0 0 0 0 0
0 0 0 0 0 0 0 0 0 0 0 0 0 0 1 2 2 1 0 0 0 0 0 0 0 0 0 0 0 0 0 0 0 0 0 0 0 0 0 0 0 0 0 0 0 0 0 0 0
0 0 0 0 0 0 0 0 0 0 0 0 0 0 1 2 1 0 0 0 0 0 0 0 0 0 0 0 0 0 0 0 0 0 0 0 0 0 0 0 0 0 0 0 0 0 0 0 0
0 0 0 0 0 0 0 0 0 0 0 0 0 0 1 1 0 0 0 0 0 0 0 0 0 0 0 0 0 0 0 0 0 0 0 0 0 0 0 0 0 0 0 0 0 0 0 0 0
0 0 0 0 0 0 0 0 0 0 0 0 0 0 0 0 0 0 0 0 0 0 0 0 0 0 0 0 0 0 0 0 0 0 0 0 0 0 0 0 0 0 0 0 0 0 0 0 0
0 0 0 0 0 0 0 0 0 0 0 0 0 0 0 0 0 0 0 0 0 0 0 0 0 0 0 0 0 0 0 0 0 0 0 0 0 0 0 0 0 0 0 0 0 0 0 0 0
0 0 0 0 0 0 0 0 0 0 0 0 0 1 1 1 0 0 0 0 0 0 0 0 0 0 0 0 0 0 0 0 0 0 0 0 0 0 0 0 0 0 0 0 0 0 0 0 0
0 0 0 0 0 0 0 0 0 0 0 0 0 1 1 1 0 0 0 0 0 0 0 0 0 0 0 0 0 0 0 0 0 0 0 0 0 0 0 0 0 0 0 0 0 0 0 0 0
0 0 0 0 0 0 0 0 0 0 0 0 0 0 0 0 0 0 0 0 0 0 0 0 0 0 0 0 0 0 0 0 0 0 0 0 0 0 0 0 0 0 0 0 0 0 0 0 0
0 0 0 0 0 0 0 0 0 0 0 0 0 0 0 0 0 0 0 0 0 0 0 0 0 0 0 0 0 0 0 0 0 0 0 0 0 0 0 0 0 0 0 0 0 0 0 0 0
0 0 0 0 0 0 0 0 0 0 0 0 0 0 0 0 0 0 0 0 0 0 0 0 0 0 0 0 0 0 0 0 0 0 0 0 0 0 0 0 0 0 0 0 0 0 0 0 0
0 0 0 0 0 0 0 0 0 0 0 0 0 0 0 0 0 0 0 0 0 0 0 0 0 0 0 0 0 0 0 0 0 0 0 0 0 0 0 0 0 0 0 0 0 0 0 0 0
0 0 0 0 0 0 0 0 0 0 0 0 0 0 0 0 0 0 0 0 0 0 0 0 0 0 0 0 0 0 0 0 0 0 0 0 0 0 0 0 0 0 0 0 0 0 0 0 0
0 0 0 0 0 0 0 0 0 0 0 0 0 0 0 0 0 0 0 0 0 0 0 0 0 0 0 0 0 0 0 0 0 0 0 0 0 0 0 0 0 0 0 0 0 0 0 0 0
0 0 0 0 0 0 0 0 0 0 0 0 0 0 0 0 0 0 0 0 0 0 0 0 0 0 0 0 0 0 0 0 0 0 0 0 0 0 0 0 0 0 0 0 0 0 0 0 0
0 0 0 0 0 0 0 0 0 0 0 0 0 0 0 0 0 0 0 0 0 0 0 0 0 0 0 0 0 0 0 0 0 0 0 0 0 0 0 0 0 0 0 0 0 0 0 0 0
0 0 0 0 0 0 0 0 0 0 0 0 0 0 0 0 0 0 0 0 0 0 0 0 0 0 0 0 0 0 0 0 0 0 0 0 0 0 0 0 0 0 0 0 0 0 0 0 0
0 0 0 0 0 0 0 0 0 0 0 0 0 0 0 0 0 0 0 0 0 0 0 0 0 0 0 0 0 0 0 0 0 0 0 0 0 0 0 0 0 0 0 0 0 0 0 0 0
0 0 0 0 0 0 0 0 0 0 0 0 0 0 0 0 0 0 0 0 0 0 0 0 0 0 0 0 0 0 0 0 0 0 0 0 0 0 0 0 0 0 0 0 0 0 0 0 0
0 0 0 0 0 0 0 0 0 0 0 0 0 0 0 0 0 0 0 0 0 0 0 0 0 0 0 0 0 0 0 0 0 0 0 0 0 0 0 0 0 0 0 0 0 0 0 0 0
0 0 0 0 0 0 0 0 0 0 0 0 0 0 0 0 0 0 0 0 0 0 0 0 0 0 0 0 0 0 0 0 0 0 0 0 0 0 0 0 0 0 0 0 0 0 0 0 0
Wind_Speed
8 3 2 4 6 4 2 4 2 1 0 1 1 3 5 4 3 2 1 1 2 2 1 3 5 7 7 7 8 8 9 9 10 10 9 9 10 11 11 11 11 11 11 11 11 11 12 12 12
3 2 4 5 5 1 4 3 3 2 2 2 3 3 4 2 2 2 1 1 2 3 2 3 6 7 7 7 8 8 8 9 9 10 9 9 9 10 11 11 11 11 11 11 11 12 12 12 12
2 3 4 4 3 6 4 2 3 0 1 2 3 3 2 1 1 1 1 1 4 4 3 3 6 7 7 7 7 7 8 8 9 9 9 8 9 10 11 11 11 10 11 11 11 11 11 11 11
3 4 5 3 4 5 4 1 2 2 2 3 3 3 1 2 0 0 1 3 5 4 4 4 7 7 7 7 7 7 7 8 8 8 8 8 9 10 10 10 10 11 11 11 11 11 11 10 11
4 4 3 1 4 3 2 2 1 1 1 2 3 3 1 2 2 3 3 4 5 4 4 4 7 7 7 7 7 7 7 7 7 8 8 8 8 9 9 10 10 10 10 10 11 10 10 10 10
4 4 3 4 4 2 1 1 1 1 1 1 3 3 1 1 2 3 4 5 5 5 4 4 7 7 7 7 7 7 6 7 7 7 7 8 7 8 9 9 9 9 9 10 10 10 10 10 9
4 4 3 4 3 2 2 1 1 2 2 2 3 4 1 0 2 3 4 5 5 5 5 4 4 5 6 7 6 7 6 6 7 7 7 7 7 7 8 8 8 8 9 9 9 10 10 10 10
4 4 2 2 3 3 1 1 1 2 3 1 3 5 3 3 4 4 5 5 5 5 5 4 4 4 4 4 7 7 8 7 8 8 8 8 8 7 8 7 7 8 8 9 9 9 9 10 10
3 3 3 4 4 3 0 1 1 1 3 2 1 1 1 6 6 6 4 4 4 4 3 4 4 4 4 4 6 7 8 9 8 8 9 8 5 4 5 6 7 8 8 8 8 9 10 9 9
3 3 5 2 3 2 0 1 1 2 1 1 1 2 4 6 7 6 5 4 3 2 2 3 3 3 4 3 4 3 4 5 5 4 5 4 4 4 5 7 8 8 8 8 9 9 9 7 4
2 4 2 1 0 1 0 0 0 3 2 3 4 4 6 6 6 6 5 4 3 2 2 2 2 3 3 3 3 2 2 3 4 5 4 4 4 3 3 3 4 4 6 4 5 5 4 4 3
1 1 1 1 1 0 1 1 0 2 4 2 4 7 7 7 7 6 6 4 3 3 2 1 2 2 3 3 2 2 2 2 3 3 4 3 2 2 2 2 2 2 2 3 3 2 3 4 4
1 1 1 0 1 0 0 1 2 4 3 1 3 6 7 6 6 4 4 4 4 3 2 2 2 2 2 3 2 3 2 2 2 2 3 3 2 2 2 2 2 2 2 2 2 2 3 3 3
1 1 2 2 1 1 1 3 2 5 1 1 3 5 6 6 6 4 4 5 4 4 3 2 3 2 2 2 2 2 2 2 2 2 2 3 2 2 2 2 2 2 2 2 2 2 2 2 2
0 1 3 2 1 1 1 4 5 4 2 2 3 4 5 5 5 6 6 6 5 4 4 3 3 3 3 3 2 2 2 2 2 2 2 2 2 2 2 1 1 1 1 2 2 2 2 2 2
2 2 2 2 0 1 2 8 4 2 3 3 4 4 5 5 5 5 5 4 4 4 4 3 3 3 3 2 2 2 2 2 1 1 1 2 2 2 2 1 1 1 1 1 2 2 2 2 2
2 1 2 3 1 0 2 7 4 2 3 5 5 6 5 5 5 5 5 5 5 5 5 4 3 3 3 2 2 2 2 2 1 1 1 1 2 2 2 1 1 1 1 1 2 2 1 1 2
3 2 2 3 2 1 3 8 7 3 4 6 6 6 5 6 6 5 4 4 4 4 5 4 4 3 3 2 2 2 2 1 1 1 1 1 1 2 2 1 2 1 1 2 2 2 2 1 1
2 2 3 4 2 2 5 9 9 5 5 6 6 6 6 6 4 3 4 4 4 4 4 4 4 4 3 2 2 2 1 1 1 1 1 1 1 2 2 2 1 1 1 1 2 1 2 2 1
1 2 4 4 1 1 5 9 7 5 5 6 7 7 7 5 3 3 4 4 4 5 5 4 4 4 3 2 2 2 2 1 1 0 1 1 1 1 2 2 1 1 1 2 2 2 1 1 1
3 4 3 4 3 2 4 7 5 4 3 3 3 4 4 5 4 4 4 4 4 4 4 4 4 3 3 2 2 2 2 1 1 0 0 0 1 1 1 2 2 1 2 2 1 2 2 1 0
4 3 3 2 1 3 2 6 6 4 4 4 4 3 4 3 3 3 3 3 4 4 3 3 3 3 3 3 3 4 3 2 2 2 1 1 1 1 2 2 2 2 1 2 2 1 1 2 1
2 1 1 0 1 3 2 4 9 2 4 5 4 4 3 3 3 3 4 4 3 3 3 3 3 2 2 3 3 4 3 2 1 1 1 1 1 1 1 2 2 2 1 2 2 2 1 1 2
2 3 3 3 2 4 5 5 8 3 5 4 3 3 2 2 2 3 2 3 2 2 3 3 3 3 2 3 3 4 4 3 2 2 2 1 1 1 1 1 2 2 2 2 2 2 2 2 1
3 3 3 4 2 6 2 4 10 5 4 4 4 3 2 1 1 1 1 2 2 3 3 3 3 3 3 3 3 4 4 4 5 4 3 2 1 1 2 2 2 2 2 2 2 2 2 2 2
3 5 5 4 4 5 2 7 8 4 3 2 2 2 1 1 0 0 2 2 2 2 3 3 4 3 3 3 3 3 3 3 3 3 3 3 2 2 2 2 2 2 2 2 2 2 2 2 2
3 3 3 3 1 3 6 7 8 2 2 2 2 2 1 1 0 0 1 1 2 2 3 3 3 2 3 3 3 3 3 3 3 2 2 2 2 2 2 2 2 2 2 2 2 2 2 2 2
2 4 3 3 3 4 6 5 5 4 3 2 2 3 3 1 1 1 1 1 1 2 2 2 3 3 3 2 2 2 2 3 2 2 2 2 2 2 2 2 2 2 2 2 2 2 2 2 2
2 2 3 3 3 4 4 7 5 5 4 4 4 3 3 2 1 1 1 1 1 1 1 1 2 2 2 2 2 2 2 1 1 2 2 2 2 2 2 2 2 2 2 2 2 2 2 2 2
2 3 5 4 4 4 3 9 3 3 3 3 4 3 2 2 1 1 1 1 1 1 1 2 2 2 2 2 2 2 1 1 1 1 1 1 2 2 2 2 2 2 2 2 3 3 3 3 3
Wind_Direction
340 351 55 54 56 54 237 245 217 240 177 44 61 96 125 125 147 165 43 41 76 127 150 134 104 99 99 95 93 89 88 90 92 91 87 91 92 90 88 82 79 78 79 79 79 79 80 79 78
330 4 53 61 96 165 256 241 216 213 167 107 55 62 79 71 41 71 37 14 92 103 94 100 98 99 98 96 98 94 91 91 94 92 89 91 93 92 90 84 80 77 78 80 80 80 79 78 77
339 45 80 82 141 191 219 219 203 176 114 105 80 52 79 75 54 95 351 82 91 83 69 84 96 98 97 98 99 101 96 93 95 97 93 91 91 91 89 85 82 79 77 78 79 79 80 80 79
52 46 60 93 209 221 214 216 161 127 62 62 105 79 50 19 343 42 66 95 97 78 63 75 85 92 92 94 94 101 100 96 96 96 94 94 92 90 87 84 84 82 78 77 76 76 78 82 80
55 78 81 207 233 238 239 251 170 137 109 67 109 116 64 2 55 87 90 92 95 76 62 68 76 84 89 88 86 94 101 101 100 98 94 91 90 91 88 83 83 83 79 78 76 76 78 78 78
58 74 121 218 232 238 250 256 140 113 123 98 122 125 140 25 78 96 95 88 88 84 71 67 71 70 74 82 85 86 90 98 103 101 97 93 91 92 89 85 82 83 81 78 77 76 74 74 74
107 112 174 201 218 238 232 213 151 160 168 199 159 132 166 32 107 103 95 91 83 78 73 61 59 61 61 64 72 74 79 85 94 98 93 90 88 89 87 84 81 82 82 80 77 75 73 70 70
125 116 154 198 197 236 232 143 148 164 185 137 131 148 198 195 131 111 96 86 81 72 67 63 59 57 53 58 61 62 66 74 79 76 72 74 77 77 72 71 75 78 78 77 75 72 69 66 66
95 100 200 204 189 216 156 117 1 49 112 92 82 158 192 130 126 114 98 82 79 73 61 63 64 59 53 62 62 57 61 67 70 68 65 65 58 54 54 56 67 73 73 74 74 71 68 64 59
101 171 216 211 184 175 149 145 162 84 83 97 53 42 105 126 134 132 134 142 129 110 68 59 66 64 59 63 63 55 55 57 60 62 62 64 58 51 53 50 58 63 63 65 66 65 63 58 45
137 193 215 255 224 152 139 333 151 140 211 208 189 164 144 147 146 151 155 158 155 138 92 54 69 70 73 75 70 62 60 59 58 57 59 64 63 53 49 49 42 47 52 52 54 53 47 48 44
136 256 216 256 346 34 205 196 300 206 227 226 177 157 154 166 173 173 168 164 151 138 129 94 81 76 75 80 80 83 74 68 63 52 60 69 69 56 52 56 47 47 45 54 52 57 54 52 48
191 244 300 313 25 299 202 241 226 255 269 8 129 150 166 178 186 180 164 156 153 154 151 139 118 103 90 84 82 82 79 81 78 66 57 64 76 73 56 56 54 53 52 59 61 64 62 57 47
197 200 292 303 288 262 207 265 245 259 237 114 156 178 187 186 189 178 172 172 174 174 172 156 140 130 116 106 102 100 91 84 82 76 70 74 81 82 71 54 50 52 56 60 71 78 74 63 54
110 17 337 301 260 235 168 286 238 240 171 194 214 205 200 194 187 192 191 186 183 178 172 164 153 135 128 119 111 104 100 94 89 80 78 79 81 92 94 84 62 41 48 61 72 70 66 61 52
49 46 311 304 296 250 167 261 256 199 172 220 239 227 214 211 202 204 194 188 182 172 168 167 151 140 139 130 118 111 110 111 107 93 85 85 87 88 95 93 66 37 56 71 80 76 68 55 46
30 221 251 300 334 10 186 259 271 213 204 234 241 233 221 222 223 216 200 191 184 176 167 161 152 149 146 133 120 115 113 112 111 107 107 98 102 98 101 97 70 59 60 66 70 63 78 70 40
220 214 246 259 309 348 257 264 280 262 230 240 245 237 230 228 233 222 207 193 180 169 162 161 156 151 141 131 116 106 93 95 100 115 119 107 109 107 105 98 80 81 76 57 66 74 60 85 56
185 200 252 264 291 292 262 271 276 269 251 249 250 239 233 239 240 222 206 190 170 163 161 165 164 163 153 151 150 152 164 157 146 140 108 118 113 117 119 106 101 95 102 92 84 87 71 54 50
198 246 265 289 310 287 290 280 274 255 238 236 240 242 234 235 239 222 203 187 180 178 175 171 174 172 172 173 169 166 159 166 168 142 103 112 117 122 130 125 137 127 106 89 81 83 86 61 56
248 228 240 262 317 347 318 298 280 275 257 262 256 250 233 218 224 222 205 199 188 189 185 181 180 172 169 157 133 111 95 86 108 148 182 180 140 138 140 149 144 146 142 148 145 125 121 136 45
253 236 227 257 319 303 354 296 285 276 290 276 268 259 248 236 220 213 204 204 197 193 175 168 170 168 163 156 157 162 171 185 207 203 199 191 164 161 161 159 157 166 168 161 168 135 151 144 163
212 71 126 219 195 298 278 245 282 307 279 273 267 255 254 243 217 207 206 206 197 175 163 164 160 165 156 159 173 174 186 199 192 163 171 182 181 182 176 163 161 169 176 173 161 158 161 158 165
142 58 46 44 69 270 239 210 275 252 243 275 275 265 255 256 230 207 195 178 179 167 160 169 168 176 174 172 178 186 194 191 180 187 194 206 208 203 191 176 173 179 179 184 185 178 173 180 170
90 84 18 351 342 253 229 218 253 256 248 243 259 267 266 251 220 198 182 184 186 179 177 180 178 192 194 190 192 198 206 199 198 200 202 200 205 221 219 205 200 197 194 187 181 177 181 182 177
180 150 168 214 238 281 275 237 254 259 270 266 262 267 308 350 28 229 214 198 194 193 187 186 188 200 199 199 209 206 203 203 208 205 199 203 212 219 211 209 213 207 198 193 180 180 191 179 182
149 184 169 147 202 276 269 281 293 272 295 308 318 343 303 265 207 245 290 235 209 205 201 192 186 200 206 208 212 210 205 204 212 209 204 208 211 206 196 199 207 205 194 185 176 182 193 185 193
154 145 126 153 189 257 282 268 255 266 269 288 303 293 282 295 311 295 273 272 239 219 212 188 187 204 207 202 214 225 217 208 204 198 206 209 208 196 187 192 198 198 198 189 177 182 190 188 211
134 149 160 162 183 194 264 268 231 223 237 246 260 265 260 258 262 273 280 295 296 235 189 187 198 206 214 212 210 215 217 199 184 194 215 215 208 193 188 193 196 197 202 195 188 203 196 201 221
198 188 164 181 227 205 226 268 275 229 258 258 266 272 267 253 247 253 268 303 338 303 227 207 212 213 222 210 200 209 206 183 192 213 226 216 207 196 192 190 196 204 207 202 198 210 214 213 226